User: anonymous   Login
Location: ???? ?????????
(31.1304°N, 31.7111°E)
Time: 20:07:58
(UTC+00:00)
Language:

Cosmos 1745 Rocket - Orbit

View from above orbital plane
View from above orbital plane
View from above satellite
View from above satellite

Ground track
Ground track

The orbit data is extracted from the following two-line orbital elements,

1 16728U 86037B   21016.61039806  .00000070  00000-0  54982-4 0  9990
2 16728  82.9547  86.5335 0031923 138.6957 330.0645 13.76737653740480
Epoch (UTC): 16 January 2021 14:38:58
Eccentricity: 0.0031923
inclination: 82.9547°
perigee height: 952 km
apogee height: 999 km
right ascension of ascending node: 86.5335°
argument of perigee: 138.6957°
revolutions per day: 13.76737653
mean anomaly at epoch: 330.0645°
orbit number at epoch: 74048

The dashed part of the orbit path shows where the satellite is in the earth's shadow,  

DLR